Orbital Elements at Epoch 2459200.5 (2020-Dec-17.0) TDB
Reference: JPL 20 (heliocentric ecliptic J2000)
Element | Value | Uncertainty (1-sigma) | Units |
e | .07740088764927053 | 5.2718e-08 | |
a | 3.078504093812922 | 2.0857e-08 | au |
q | 2.840225144319888 | 1.6494e-07 | au |
i | 7.7160336643425 | 6.7202e-06 | deg |
node | 321.1666690179568 | 3.2354e-05 | deg |
peri | 67.25303181811016 | 4.9604e-05 | deg |
M | 178.9582619430025 | 3.7792e-05 | deg |
tp | 2458219.752335738187 (2018-Apr-11.25233574) | 0.00020371 | TDB |
period | 1972.913434120768 5.40 | 2.005e-05 5.489e-08 | d yr |
n | .1824712599011901 | 1.8544e-09 | deg/d |
Q | 3.316783043305954 | 2.2472e-08 | au |
|
| | Orbit Determination Parameters
Additional Information
|